�N����,����,����,����,����,�C��,���x,�~����,�S�V����,�ő�u�ԕ���,,,,,
,,,,,,,,,����,����,����,�N��,,
yyyy/mm/dd,hh:mm:ss,(16),16����,m/s,��,%,mm,KW/�u,(16),16����,m/s,Time,,
2021/7/1,1:00:00,7,��쓌,1,13.6,100,0,0,9,��쐼,1.9,57,,
2021/7/1,2:00:00,7,��쓌,1.4,13.5,100,0,0,7,��쓌,2.5,53,,
2021/7/1,3:00:00,6,�쓌,1.2,13.4,100,0,0,6,�쓌,2.4,48,,
2021/7/1,4:00:00,6,�쓌,1.6,13.1,100,0,0,6,�쓌,2.9,53,,
2021/7/1,5:00:00,7,��쓌,1.1,13.3,100,0,0.02,7,��쓌,2.8,6,,
2021/7/1,6:00:00,6,�쓌,1.5,13.6,100,0,0.07,6,�쓌,2.8,58,,
2021/7/1,7:00:00,6,�쓌,1.5,13.7,100,0,0.11,6,�쓌,2.9,1,,
2021/7/1,8:00:00,5,���쓌,1.8,14.3,100,0,0.16,6,�쓌,3.2,13,,
2021/7/1,9:00:00,6,�쓌,2.2,14.3,97.6,0,0.28,6,�쓌,3.3,57,,
2021/7/1,10:00:00,5,���쓌,2.5,14.8,98.8,0,0.28,5,���쓌,3.8,57,,
2021/7/1,11:00:00,6,�쓌,2.5,14.7,97.5,0,0.32,5,���쓌,4.4,24,,
2021/7/1,12:00:00,6,�쓌,3,15,95.8,0,0.28,5,���쓌,5,57,,
2021/7/1,13:00:00,6,�쓌,2.9,15.1,94.6,0,0.28,7,��쓌,4.3,46,,
2021/7/1,14:00:00,6,�쓌,3,14.9,94.4,0,0.28,7,��쓌,5.5,48,,
2021/7/1,15:00:00,5,���쓌,2.2,14.6,98.4,0,0.16,6,�쓌,4.1,18,,
2021/7/1,16:00:00,5,���쓌,2.4,14.4,99.2,0,0.11,4,��,3.6,10,,
2021/7/1,17:00:00,5,���쓌,1.8,14.6,99.8,0,0.08,4,��,3.7,26,,
2021/7/1,18:00:00,6,�쓌,1.9,14.7,100,0,0.07,6,�쓌,3,37,,
2021/7/1,19:00:00,7,��쓌,0.9,14.6,100,0,0.02,6,�쓌,6.6,40,,
2021/7/1,20:00:00,3,���k��,0.6,14.6,100,0,0,7,��쓌,2,2,,
2021/7/1,21:00:00,4,��,1.5,14.6,100,0,0,4,��,2.1,52,,
2021/7/1,22:00:00,6,�쓌,0.5,14.6,100,0,0,6,�쓌,1.7,41,,
2021/7/1,23:00:00,6,�쓌,0.7,14.5,100,0.5,0,6,�쓌,2.1,49,,
2021/7/1,0:00:00,6,�쓌,1.3,14.5,100,0,0,7,��쓌,2.6,52,,
2021/7/2,1:00:00,6,�쓌,1.1,14.6,100,0,0,7,��쓌,2.8,29,,
2021/7/2,2:00:00,6,�쓌,1.4,14.5,100,0,0,5,���쓌,2.2,8,,
2021/7/2,3:00:00,4,��,0.6,14.3,100,0,0,4,��,2.3,17,,
2021/7/2,4:00:00,3,���k��,0.4,14.4,100,0,0,5,���쓌,1.5,33,,
2021/7/2,5:00:00,1,�k�k��,1.2,14.5,100,0,0.01,1,�k�k��,1.8,58,,
2021/7/2,6:00:00,1,�k�k��,1.2,14.6,100,0,0.03,2,�k��,2.3,17,,
2021/7/2,7:00:00,2,�k��,0.8,15.4,100,0,0.08,1,�k�k��,2,17,,
2021/7/2,8:00:00,4,��,2.1,15.8,100,0,0.17,4,��,3.2,50,,
2021/7/2,9:00:00,4,��,1.9,16.1,100,0,0.25,4,��,2.9,42,,
2021/7/2,10:00:00,5,���쓌,2.8,16,100,0,0.29,5,���쓌,4.1,58,,
2021/7/2,11:00:00,4,��,3,17.2,99.8,0,0.39,4,��,4.5,49,,
2021/7/2,12:00:00,3,���k��,2.3,19.7,88.5,0,0.61,4,��,3.9,17,,
2021/7/2,13:00:00,4,��,2.9,19.4,90.5,0,0.72,4,��,4.4,21,,
2021/7/2,14:00:00,5,���쓌,2.4,18.8,83.1,0,0.7,4,��,3.9,2,,
2021/7/2,15:00:00,6,�쓌,2.1,18.6,86.5,0,0.56,5,���쓌,3.8,11,,
2021/7/2,16:00:00,5,���쓌,2.1,17.5,87.6,0,0.41,5,���쓌,3.5,0,,
2021/7/2,17:00:00,7,��쓌,1.9,17,91.1,0,0.28,6,�쓌,2.9,29,,
2021/7/2,18:00:00,6,�쓌,0.6,16.6,94,0,0.1,7,��쓌,2,4,,
2021/7/2,19:00:00,7,��쓌,0.9,15.2,96.8,0,0.03,7,��쓌,2.2,44,,
2021/7/2,20:00:00,16,�É�,0.1,15,98.6,0,0,8,��,1.6,14,,
2021/7/2,21:00:00,,,,,,,,,,,,,
2021/7/2,22:00:00,,,,,,,,,,,,,
2021/7/2,23:00:00,,,,,,,,,,,,,
2021/7/2,0:00:00,16,�É�,0,14.4,99.9,0,0,14,�k��,0.9,11,,
2021/7/3,1:00:00,1,�k�k��,1.6,14,100,0,0,1,�k�k��,3,40,,
2021/7/3,2:00:00,14,�k��,1.3,13.8,100,0,0,1,�k�k��,2.7,10,,
2021/7/3,3:00:00,12,��,1.8,14.1,100,0,0,14,�k��,2.6,46,,
2021/7/3,4:00:00,16,�É�,0.2,14,100,0,0,1,�k�k��,2.3,44,,
2021/7/3,5:00:00,14,�k��,1.3,14.3,100,0,0.03,14,�k��,2.4,57,,
2021/7/3,6:00:00,14,�k��,0.9,15.2,99.4,0,0.08,14,�k��,2.1,0,,
2021/7/3,7:00:00,17.1,�k,91.7,0,0.18,,,,,,,,
2021/7/3,8:00:00,3,���k��,2.1,17.2,92.5,0,0.2,4,��,3.1,59,,
2021/7/3,9:00:00,5,���쓌,2.2,17.2,93.2,0,0.29,4,��,3.2,37,,
2021/7/3,10:00:00,5,���쓌,3.4,16.6,91.6,0,0.3,4,��,4.5,55,,
2021/7/3,11:00:00,4,��,3.3,18,87,0,0.34,4,��,5,45,,
2021/7/3,12:00:00,4,��,4.4,19,80.5,0,0.8,4,��,6.3,46,,
2021/7/3,13:00:00,4,��,4.2,20.4,79,0,1.01,5,���쓌,7.2,27,,
2021/7/3,14:00:00,6,�쓌,3.1,18.5,79.2,0,0.8,3,���k��,5.8,4,,
2021/7/3,15:00:00,7,��쓌,2.2,17.9,78.6,0,0.67,7,��쓌,5.1,7,,
2021/7/3,16:00:00,8,��,1.9,18.3,83.8,0,0.45,6,�쓌,4,37,,
2021/7/3,17:00:00,8,��,1.9,17.8,86.9,0,0.28,6,�쓌,3.2,40,,
2021/7/3,18:00:00,8,��,1.5,16.5,88.9,0,0.22,7,��쓌,2.5,30,,
2021/7/3,19:00:00,8,��,1,14.7,95.5,0,0.05,7,��쓌,2.7,12,,
2021/7/3,20:00:00,6,�쓌,1.6,15,96.6,0,0,5,���쓌,2.6,59,,
2021/7/3,21:00:00,7,��쓌,0.5,14.5,96.7,0,0,5,���쓌,3.1,6,,
2021/7/3,22:00:00,5,���쓌,0.8,14.5,98.5,0,0,5,���쓌,1.9,50,,
2021/7/3,23:00:00,4,��,1.2,14.5,97,0,0,4,��,2.2,21,,
2021/7/3,0:00:00,5,���쓌,1.4,14.2,97.5,0,0,5,���쓌,2.5,36,,
2021/7/4,1:00:00,5,���쓌,0.6,14.2,97.9,0,0,5,���쓌,2.1,22,,
2021/7/4,2:00:00,16,�É�,0.1,14.1,98.6,0,0,6,�쓌,0.9,50,,
2021/7/4,3:00:00,7,��쓌,1,14,98.9,0,0,6,�쓌,2.3,40,,
2021/7/4,4:00:00,8,��,1.1,13.8,99.6,0,0,6,�쓌,2.4,45,,
2021/7/4,5:00:00,7,��쓌,1.4,13.8,99.8,0,0.02,7,��쓌,2.5,55,,
2021/7/4,6:00:00,8,��,0.8,14.3,99.8,0,0.04,7,��쓌,2.7,19,,
2021/7/4,7:00:00,5,���쓌,2.5,14.2,99.5,0,0.08,6,�쓌,3.1,57,,
2021/7/4,8:00:00,5,���쓌,3.1,13.8,99.6,0,0.15,5,���쓌,4.2,56,,
2021/7/4,9:00:00,5,���쓌,2.4,14.3,99.8,0,0.2,5,���쓌,4.7,44,,
2021/7/4,10:00:00,6,�쓌,2.2,16.4,94.3,0,0.33,7,��쓌,4,15,,
2021/7/4,11:00:00,6,�쓌,2.4,18.5,86,0,0.61,6,�쓌,4,59,,
2021/7/4,12:00:00,6,�쓌,2.5,16.7,87.7,0,0.68,5,���쓌,4.2,32,,
2021/7/4,13:00:00,5,���쓌,2.6,16.7,90.9,0,0.47,5,���쓌,4.9,17,,
2021/7/4,14:00:00,6,�쓌,3,15.5,88.8,0,0.3,6,�쓌,4.6,51,,
2021/7/4,15:00:00,6,�쓌,2.5,15.2,88.8,0,0.21,5,���쓌,4.5,41,,
2021/7/4,16:00:00,7,��쓌,2.4,15.2,87.1,0,0.21,6,�쓌,4.7,1,,
2021/7/4,17:00:00,7,��쓌,2.2,15.4,85.2,0,0.17,6,�쓌,4.1,45,,
2021/7/4,18:00:00,6,�쓌,1.9,15.1,88.4,0,0.09,8,��,3.8,18,,
2021/7/4,19:00:00,6,�쓌,1.6,14.5,88.7,0,0.03,7,��쓌,3.7,27,,
2021/7/4,20:00:00,6,�쓌,1.2,13.7,91.4,0,0,6,�쓌,2.9,17,,
2021/7/4,21:00:00,16,�É�,0.1,11.4,96.6,0,0,6,�쓌,1.1,1,,
2021/7/4,22:00:00,16,�É�,0,11,98.5,0,0,12,��,1,8,,
2021/7/4,23:00:00,16,�É�,0,11.2,99.6,0,0,13,���k��,1.3,39,,
2021/7/4,0:00:00,16,�É�,0.2,11.4,99.8,0,0,12,��,2,57,,
2021/7/5,1:00:00,13,���k��,0.3,11.6,99.9,0,0,12,��,1.2,30,,
2021/7/5,2:00:00,13,���k��,0.3,12.2,100,0,0,11,���쐼,1.6,44,,
2021/7/5,3:00:00,16,�É�,0,12.6,100,0,0,12,��,1.9,54,,
2021/7/5,4:00:00,3,���k��,1.3,13.6,100,0,0,4,��,2,56,,
2021/7/5,5:00:00,6,�쓌,1.7,13.9,100,1.5,0.01,5,���쓌,2.6,46,,
2021/7/5,6:00:00,5,���쓌,2.8,13.8,100,4.5,0.01,5,���쓌,4.4,49,,
2021/7/5,7:00:00,5,���쓌,6.1,13.7,100,6.5,0.03,4,��,9.4,50,,
2021/7/5,8:00:00,4,��,2.5,14.4,100,0,0.05,4,��,4.7,14,,
2021/7/5,9:00:00,3,���k��,2.4,14.3,99.8,0.5,0.09,3,���k��,4.9,24,,
2021/7/5,10:00:00,3,���k��,3,14.7,99.6,0,0.13,3,���k��,5.3,23,,
2021/7/5,11:00:00,3,���k��,3,14.8,99.4,0.5,0.18,3,���k��,5.2,18,,
2021/7/5,12:00:00,3,���k��,2.5,14.9,99.5,1.5,0.13,3,���k��,5.9,3,,
2021/7/5,13:00:00,4,��,2.4,15.5,99.8,1,0.16,3,���k��,6.3,21,,
2021/7/5,14:00:00,3,���k��,3.1,15.1,99.5,2,0.16,3,���k��,4.7,50,,
2021/7/5,15:00:00,2,�k��,2.6,14.9,99.7,1.5,0.07,2,�k��,5.1,42,,
2021/7/5,16:00:00,1,�k�k��,1.2,14.8,99.9,2.5,0.03,1,�k�k��,4,12,,
2021/7/5,17:00:00,14,�k��,0.9,15.1,99.9,4,0.06,1,�k�k��,4.2,42,,
2021/7/5,18:00:00,16,�k,1.1,15.2,99.9,2.5,0.04,14,�k��,2.4,39,,
2021/7/5,19:00:00,16,�k,1.7,14.9,99.9,1,0.02,16,�k,2.7,58,,
2021/7/5,20:00:00,16,�k,1.6,14.7,100,0.5,0,16,�k,2.8,44,,
2021/7/5,21:00:00,15,�k�k��,1.3,14.7,100,0.5,0,1,�k�k��,3.5,17,,
2021/7/5,22:00:00,15,�k�k��,2.3,14.8,100,0.5,0,15,�k�k��,4.8,51,,
2021/7/5,23:00:00,14,�k��,2.5,14.8,100,0,0,15,�k�k��,4.8,45,,
2021/7/5,0:00:00,14,�k��,2.8,14.8,100,0,0,14,�k��,6.3,8,,
2021/7/6,1:00:00,14,�k��,2.8,14.5,100,0,0,15,�k�k��,5.6,2,,
2021/7/6,2:00:00,15,�k�k��,1.9,14.9,100,0,0,14,�k��,4.2,0,,
2021/7/6,3:00:00,14,�k��,2,15,100,0,0,14,�k��,3.3,58,,
2021/7/6,4:00:00,14,�k��,1.4,15.1,100,0,0,15,�k�k��,3.6,44,,
2021/7/6,5:00:00,14,�k��,1.1,15.3,100,0,0.01,14,�k��,2.9,36,,
2021/7/6,6:00:00,1,�k�k��,1.4,15.5,100,0,0.03,1,�k�k��,2.4,49,,
2021/7/6,7:00:00,1,�k�k��,2,16.3,99.5,0,0.1,1,�k�k��,3,55,,
2021/7/6,8:00:00,1,�k�k��,2.9,17.2,94.7,0,0.23,2,�k��,4.4,53,,
2021/7/6,9:00:00,3,���k��,2.3,17.9,93.3,0,0.36,3,���k��,4.7,32,,
2021/7/6,10:00:00,4,��,3.8,17.2,93.6,0,0.29,4,��,5.3,56,,
2021/7/6,11:00:00,4,��,3.8,17.5,93.4,0,0.34,4,��,5.7,19,,
2021/7/6,12:00:00,4,��,4,17.2,91.5,0,0.4,4,��,6.2,35,,
2021/7/6,13:00:00,4,��,2.6,17.4,92.8,0,0.27,4,��,4.9,15,,
2021/7/6,14:00:00,4,��,2.5,17.9,90.5,0,0.37,4,��,4.2,39,,
2021/7/6,15:00:00,4,��,2.6,16.2,94.5,0,0.28,4,��,3.8,42,,
2021/7/6,16:00:00,4,��,2.5,16.9,94.6,0,0.22,3,���k��,4,47,,
2021/7/6,17:00:00,3,���k��,2,15.8,97.4,0,0.09,4,��,3.8,19,,
2021/7/6,18:00:00,2,�k��,1.8,15.8,98.4,0,0.04,1,�k�k��,3.6,57,,
2021/7/6,19:00:00,3,���k��,1.7,15.1,99.3,0,0.01,3,���k��,3.7,25,,
2021/7/6,20:00:00,2,�k��,2,15.2,100,0,0,2,�k��,3.4,23,,
2021/7/6,21:00:00,2,�k��,2.5,15.3,100,0,0,2,�k��,4.5,50,,
2021/7/6,22:00:00,2,�k��,3,15.2,100,0,0,1,�k�k��,5.7,53,,
2021/7/6,23:00:00,2,�k��,2.8,14.7,100,0,0,2,�k��,6.3,23,,
2021/7/6,0:00:00,3,���k��,3.5,14.4,100,0,0,3,���k��,6.7,31,,
2021/7/7,1:00:00,2,�k��,2.5,14.5,100,0,0,2,�k��,5.3,26,,
2021/7/7,2:00:00,15,�k�k��,0.5,14.7,100,0,0,2,�k��,3,0,,
2021/7/7,3:00:00,16,�É�,0.1,14.7,100,0,0,14,�k��,1.2,17,,
2021/7/7,4:00:00,11,���쐼,0.5,14.8,100,0.5,0,10,�쐼,0.8,48,,
2021/7/7,5:00:00,13,���k��,0.6,15,100,0,0.02,13,���k��,1.2,45,,
2021/7/7,6:00:00,14,�k��,0.3,15.5,100,0,0.05,11,���쐼,1.1,29,,
2021/7/7,7:00:00,5,���쓌,1.6,15.1,100,0,0.1,5,���쓌,2.1,55,,
2021/7/7,8:00:00,4,��,2.7,15.2,100,0,0.15,4,��,3.9,55,,
2021/7/7,9:00:00,4,��,2.5,15.4,100,0,0.22,4,��,4.1,39,,
2021/7/7,10:00:00,3,���k��,2.7,16.6,99.9,0,0.37,3,���k��,4.5,49,,
2021/7/7,11:00:00,4,��,2.4,18.1,96.3,0,0.48,5,���쓌,4.4,24,,
2021/7/7,12:00:00,4,��,3.9,18.2,90.2,0,0.57,4,��,6.1,58,,
2021/7/7,13:00:00,4,��,3.9,18.2,90,0,0.45,4,��,6.5,20,,
2021/7/7,14:00:00,3,���k��,4.2,18.4,90.1,0,0.59,3,���k��,7.2,54,,
2021/7/7,15:00:00,4,��,4.1,17.3,91.7,0,0.43,4,��,7.2,51,,
2021/7/7,16:00:00,3,���k��,2.8,16.1,93.9,0,0.21,3,���k��,6.1,41,,
2021/7/7,17:00:00,3,���k��,2.6,15.2,96.6,0,0.07,4,��,4.7,13,,
2021/7/7,18:00:00,3,���k��,2.6,14.6,98.8,0,0.03,3,���k��,4,48,,
2021/7/7,19:00:00,3,���k��,2,14.4,99.6,0,0.01,3,���k��,3.6,0,,
2021/7/7,20:00:00,2,�k��,1.1,14.4,100,0,0,3,���k��,2.7,26,,
2021/7/7,21:00:00,2,�k��,1.3,14.2,100,0,0,2,�k��,3.1,0,,
2021/7/7,22:00:00,1,�k�k��,1,14.4,100,0,0,2,�k��,2.8,12,,
2021/7/7,23:00:00,3,���k��,2.6,14.5,100,0,0,2,�k��,5.2,40,,
2021/7/7,0:00:00,2,�k��,2.3,14.4,100,0,0,4,��,4.3,42,,
2021/7/8,1:00:00,2,�k��,1.9,14.4,100,0,0,2,�k��,4.7,27,,
2021/7/8,2:00:00,2,�k��,1.5,14.4,99.8,0,0,2,�k��,4.8,0,,
2021/7/8,3:00:00,1,�k�k��,1.1,14.2,99.5,0,0,2,�k��,3.6,43,,
2021/7/8,4:00:00,3,���k��,1.3,14.2,99.7,0,0,1,�k�k��,2.9,23,,
2021/7/8,5:00:00,4,��,0.6,14.2,100,0,0.01,3,���k��,1.8,49,,
2021/7/8,6:00:00,4,��,1.6,14.3,100,0,0.04,4,��,2.5,46,,
2021/7/8,7:00:00,3,���k��,2,14.7,100,0,0.07,4,��,3,29,,
2021/7/8,8:00:00,4,��,2.8,14.7,100,0,0.11,4,��,4.5,51,,
2021/7/8,9:00:00,3,���k��,3.2,15.1,99.9,0,0.19,4,��,5.6,54,,
2021/7/8,10:00:00,3,���k��,3.1,15.2,99.1,0,0.2,3,���k��,5.6,1,,
2021/7/8,11:00:00,3,���k��,3.8,14.8,98.5,0,0.19,2,�k��,6,21,,
2021/7/8,12:00:00,2,�k��,3,15.2,96.5,0,0.19,3,���k��,6.1,7,,
2021/7/8,13:00:00,3,���k��,3.8,15.3,96,0,0.22,3,���k��,5.8,52,,
2021/7/8,14:00:00,3,���k��,3.7,15.5,96,0,0.24,3,���k��,6.2,2,,
2021/7/8,15:00:00,3,���k��,3.6,15.6,96.9,0,0.27,2,�k��,6,30,,
2021/7/8,16:00:00,3,���k��,3.2,15.7,94.5,0,0.26,3,���k��,5.3,5,,
2021/7/8,17:00:00,2,�k��,2,14.4,98.5,0,0.11,4,��,4.4,1,,
2021/7/8,18:00:00,2,�k��,1.8,14,99.6,0,0.04,2,�k��,4.1,42,,
2021/7/8,19:00:00,2,�k��,1.3,13.9,100,0,0.01,3,���k��,3.1,15,,
2021/7/8,20:00:00,2,�k��,1,13.9,100,0,0,3,���k��,2.3,17,,
2021/7/8,21:00:00,1,�k�k��,1.4,13.8,100,0,0,1,�k�k��,2.1,20,,
2021/7/8,22:00:00,1,�k�k��,1.5,13.8,100,0,0,1,�k�k��,2.3,9,,
2021/7/8,23:00:00,1,�k�k��,1.4,13.8,100,0,0,2,�k��,2.4,52,,
2021/7/8,0:00:00,2,�k��,0.7,13.9,100,0,0,2,�k��,2.3,40,,
2021/7/9,1:00:00,3,���k��,1.6,13.7,100,0,0,2,�k��,2.9,48,,
2021/7/9,2:00:00,3,���k��,2.1,13.7,100,0,0,2,�k��,3.3,38,,
2021/7/9,3:00:00,3,���k��,1.9,13.6,100,0,0,1,�k�k��,3.8,17,,
2021/7/9,4:00:00,2,�k��,1.4,13.7,100,0,0,3,���k��,2.7,12,,
2021/7/9,5:00:00,2,�k��,2.3,13.7,100,0.5,0.02,2,�k��,3.5,53,,
2021/7/9,6:00:00,3,���k��,1.8,14.1,100,0,0.05,2,�k��,4,3,,
2021/7/9,7:00:00,3,���k��,1.4,14.6,100,0,0.1,3,���k��,2.4,31,,
2021/7/9,8:00:00,7,��쓌,1.7,14.6,100,0,0.18,4,��,2.8,35,,
2021/7/9,9:00:00,6,�쓌,1.7,15.8,100,0,0.37,7,��쓌,3.3,17,,
2021/7/9,10:00:00,6,�쓌,2,17.1,99.9,0,0.64,6,�쓌,3.9,48,,
2021/7/9,11:00:00,6,�쓌,2,17,96.3,0,0.68,5,���쓌,3.9,45,,
2021/7/9,12:00:00,6,�쓌,2.9,17.4,87.9,0,0.84,6,�쓌,4.5,37,,
2021/7/9,13:00:00,6,�쓌,2.8,17.2,87.7,0,0.76,5,���쓌,5.3,0,,
2021/7/9,14:00:00,6,�쓌,2.6,15.9,86.8,0,0.58,6,�쓌,5.8,21,,
2021/7/9,15:00:00,6,�쓌,2.7,16.5,87.4,0,0.59,5,���쓌,5,53,,
2021/7/9,16:00:00,6,�쓌,2.2,15.9,90.2,0,0.38,5,���쓌,4.3,3,,
2021/7/9,17:00:00,6,�쓌,2.4,14.8,90.6,0,0.21,7,��쓌,3.9,52,,
2021/7/9,18:00:00,7,��쓌,1.4,14.7,90.8,0,0.1,6,�쓌,3,16,,
2021/7/9,19:00:00,16,�É�,0.2,14.1,94.7,0,0.02,6,�쓌,2,2,,
2021/7/9,20:00:00,16,�É�,0.2,14.1,97.4,0,0,5,���쓌,0.8,11,,
2021/7/9,21:00:00,2,�k��,0.3,14.1,97.1,0,0,1,�k�k��,0.8,57,,
2021/7/9,22:00:00,4,��,1,14.2,97.8,0,0,3,���k��,1.9,51,,
2021/7/9,23:00:00,2,�k��,1.1,14.1,98.4,0,0,1,�k�k��,1.7,49,,
2021/7/9,0:00:00,1,�k�k��,0.6,14.1,99.7,0,0,1,�k�k��,1.8,20,,
2021/7/10,1:00:00,3,���k��,1.4,14.2,100,0,0,2,�k��,2.5,58,,
2021/7/10,2:00:00,4,��,1.5,14.3,100,0,0,3,���k��,2.7,1,,
2021/7/10,3:00:00,3,���k��,1.2,14.3,100,0,0,4,��,2.5,1,,
2021/7/10,4:00:00,3,���k��,1.3,14.4,100,0,0,3,���k��,1.9,51,,
2021/7/10,5:00:00,3,���k��,1.1,14.4,100,0,0.01,3,���k��,1.5,0,,
2021/7/10,6:00:00,3,���k��,1.1,14.6,100,0,0.03,3,���k��,2.2,22,,
2021/7/10,7:00:00,16,�k,0.7,14.9,100,0,0.07,2,�k��,1.8,18,,
2021/7/10,8:00:00,4,��,1.7,15.2,100,0,0.11,4,��,2.5,52,,
2021/7/10,9:00:00,5,���쓌,2,16.2,100,0,0.2,5,���쓌,3.5,43,,
2021/7/10,10:00:00,5,���쓌,2.8,17,99.5,0,0.36,4,��,4.1,52,,
2021/7/10,11:00:00,4,��,2.9,18.1,97.5,0,0.51,4,��,4.3,53,,
2021/7/10,12:00:00,5,���쓌,2.5,17.3,91.2,0,0.52,4,��,4.8,25,,
2021/7/10,13:00:00,5,���쓌,2.2,17.8,91.1,0,0.42,5,���쓌,4,14,,
2021/7/10,14:00:00,5,���쓌,2.5,17.7,90.1,0,0.45,6,�쓌,4.2,44,,
2021/7/10,15:00:00,5,���쓌,2.5,16.7,91.1,0,0.41,4,��,4.3,44,,
2021/7/10,16:00:00,5,���쓌,2.2,16,93.9,0,0.19,6,�쓌,3.5,7,,
2021/7/10,17:00:00,4,��,1.4,15.7,95.9,0,0.11,5,���쓌,3.6,24,,
2021/7/10,18:00:00,4,��,1,15.5,97.2,0,0.05,5,���쓌,2.5,13,,
2021/7/10,19:00:00,4,��,1.2,15,98.7,0,0.01,4,��,2.8,46,,
2021/7/10,20:00:00,4,��,0.6,15,99.4,0,0,5,���쓌,1.9,8,,
2021/7/10,21:00:00,16,�É�,0.2,14.9,99.9,0,0,3,���k��,1.4,9,,
2021/7/10,22:00:00,4,��,1.2,15,100,0,0,3,���k��,1.7,51,,
2021/7/10,23:00:00,3,���k��,1.5,14.7,100,0,0,3,���k��,2.7,59,,
2021/7/10,0:00:00,2,�k��,1.5,14.6,100,0,0,3,���k��,2.9,7,,
2021/7/11,1:00:00,2,�k��,0.7,14.7,100,0,0,3,���k��,2.4,13,,
2021/7/11,2:00:00,1,�k�k��,0.8,14.8,100,0,0,2,�k��,1.6,34,,
2021/7/11,3:00:00,1,�k�k��,0.6,14.8,100,0,0,2,�k��,1.8,19,,
2021/7/11,4:00:00,2,�k��,0.3,14.9,100,0,0,1,�k�k��,1.2,11,,
2021/7/11,5:00:00,2,�k��,0.8,15,100,0,0.01,3,���k��,1.3,58,,
2021/7/11,6:00:00,3,���k��,1,15.4,100,0,0.04,2,�k��,2.2,34,,
2021/7/11,7:00:00,4,��,1.5,16.1,100,0,0.11,4,��,2.1,59,,
2021/7/11,8:00:00,4,��,1.6,16.7,100,0,0.2,4,��,3.3,28,,
2021/7/11,9:00:00,5,���쓌,1.8,17.2,99.7,0,0.36,4,��,3,43,,
2021/7/11,10:00:00,5,���쓌,2.5,18.4,89.7,0,0.56,5,���쓌,3.9,58,,
2021/7/11,11:00:00,5,���쓌,2.5,18.3,90,0,0.56,5,���쓌,3.8,40,,
2021/7/11,12:00:00,5,���쓌,2.7,18.6,88.2,0,0.55,4,��,4.2,39,,
2021/7/11,13:00:00,4,��,2.7,18.9,90.9,0,0.5,4,��,4.3,17,,
2021/7/11,14:00:00,5,���쓌,2.8,17.2,94.4,0,0.3,5,���쓌,4,10,,
2021/7/11,15:00:00,5,���쓌,2.2,17.2,94.2,0,0.25,6,�쓌,3.4,23,,
2021/7/11,16:00:00,6,�쓌,1.7,16.4,98,0,0.14,6,�쓌,3.3,34,,
2021/7/11,17:00:00,5,���쓌,1.1,16.2,98.8,0,0.06,6,�쓌,2.5,4,,
2021/7/11,18:00:00,5,���쓌,0.9,16.1,99.7,0,0.04,5,���쓌,1.7,1,,
2021/7/11,19:00:00,6,�쓌,0.4,15.9,100,0,0.01,7,��쓌,1.1,46,,
2021/7/11,20:00:00,5,���쓌,1.1,15.7,100,0,0,5,���쓌,1.6,50,,
2021/7/11,21:00:00,3,���k��,0.4,15.8,100,0,0,4,��,1.5,6,,
2021/7/11,22:00:00,1,�k�k��,0.5,15.8,100,0,0,2,�k��,1.1,48,,
2021/7/11,23:00:00,3,���k��,0.4,15.8,100,0,0,1,�k�k��,1.2,9,,
2021/7/11,0:00:00,2,�k��,0.3,15.9,100,0,0,2,�k��,1.3,42,,
2021/7/12,1:00:00,2,�k��,0.5,15.9,100,0,0,3,���k��,1.4,27,,
2021/7/12,2:00:00,16,�k,0.8,15.9,100,0,0,16,�k,1.4,57,,
2021/7/12,3:00:00,14,�k��,0.3,15.8,100,0,0,16,�k,1.7,22,,
2021/7/12,4:00:00,16,�k,0.4,15.7,100,0,0,15,�k�k��,1.1,51,,
2021/7/12,5:00:00,14,�k��,0.7,15.9,100,0,0.02,14,�k��,1,56,,
2021/7/12,6:00:00,1,�k�k��,1,16.6,100,0,0.06,1,�k�k��,2,53,,
2021/7/12,7:00:00,2,�k��,1.1,17.6,100,0,0.17,3,���k��,2.1,52,,
2021/7/12,8:00:00,4,��,1.8,18.6,100,0,0.26,4,��,2.5,55,,
2021/7/12,9:00:00,4,��,2.2,18.3,100,0,0.28,4,��,3.1,27,,
2021/7/12,10:00:00,4,��,2.6,19.6,91.6,0,0.39,4,��,3.5,31,,
2021/7/12,11:00:00,4,��,3.2,20.3,90.1,0,0.59,5,���쓌,4.3,53,,
2021/7/12,12:00:00,5,���쓌,2.6,18.8,90.3,0,0.51,5,���쓌,4.4,11,,
2021/7/12,13:00:00,5,���쓌,2.1,18.3,92.7,0,0.45,4,��,4.1,11,,
2021/7/12,14:00:00,5,���쓌,2.2,18.4,93.5,0,0.38,6,�쓌,3.4,35,,
2021/7/12,15:00:00,5,���쓌,2.5,18,94.9,0,0.29,4,��,3.3,4,,
2021/7/12,16:00:00,5,���쓌,1.6,17.3,98.7,0,0.18,6,�쓌,3.3,19,,
2021/7/12,17:00:00,6,�쓌,1.8,16.8,99.8,0,0.1,5,���쓌,2.6,35,,
2021/7/12,18:00:00,4,��,1.6,16.8,100,0,0.05,6,�쓌,2.3,0,,
2021/7/12,19:00:00,4,��,0.8,16.6,100,0,0.01,4,��,1.9,5,,
2021/7/12,20:00:00,4,��,1.3,16.5,100,0,0,4,��,1.7,59,,
2021/7/12,21:00:00,4,��,1,16.4,100,0,0,4,��,2.5,18,,
2021/7/12,22:00:00,3,���k��,1.6,16.4,100,0,0,2,�k��,2.4,56,,
2021/7/12,23:00:00,3,���k��,1.7,16.3,100,0,0,3,���k��,3,39,,
2021/7/12,0:00:00,3,���k��,1,16.2,100,0,0,3,���k��,2.5,0,,
2021/7/13,1:00:00,2,�k��,0.7,16.3,100,0,0,2,�k��,1.3,49,,
2021/7/13,2:00:00,4,��,0.9,16.2,100,0,0,4,��,1.5,41,,
2021/7/13,3:00:00,4,��,0.4,16.2,100,0,0,4,��,1.7,9,,
2021/7/13,4:00:00,3,���k��,0.7,16.2,100,0.5,0,3,���k��,1.2,56,,
2021/7/13,5:00:00,2,�k��,0.7,16.6,100,0,0.02,1,�k�k��,1.4,38,,
2021/7/13,6:00:00,3,���k��,1,17.1,100,0,0.08,3,���k��,2.4,8,,
2021/7/13,7:00:00,4,��,2.3,17.1,100,0,0.14,4,��,3.2,50,,
2021/7/13,8:00:00,4,��,1.8,17.8,100,0,0.25,4,��,3.4,11,,
2021/7/13,9:00:00,4,��,1.7,18,100,0,0.32,5,���쓌,3,26,,
2021/7/13,10:00:00,4,��,1.6,19.4,99,0,0.45,5,���쓌,3,14,,
2021/7/13,11:00:00,6,�쓌,2.5,20.9,87.8,0,0.65,7,��쓌,4,53,,
2021/7/13,12:00:00,6,�쓌,2.6,21.4,81.6,0,0.86,6,�쓌,4.2,9,,
2021/7/13,13:00:00,6,�쓌,2.6,22.7,87.2,0,0.88,6,�쓌,4.5,45,,
2021/7/13,14:00:00,6,�쓌,2.5,21.5,85.2,0,0.88,5,���쓌,5.1,19,,
2021/7/13,15:00:00,6,�쓌,2.7,21.3,84.5,0,0.74,6,�쓌,5,20,,
2021/7/13,16:00:00,6,�쓌,2.4,20.5,86.6,0,0.61,5,���쓌,4.2,26,,
2021/7/13,17:00:00,6,�쓌,2.3,18.3,92.4,0,0.32,6,�쓌,3.8,4,,
2021/7/13,18:00:00,6,�쓌,1.7,17.3,96.6,0,0.05,5,���쓌,3.1,14,,
2021/7/13,19:00:00,6,�쓌,1.4,16.7,99.1,0,0.01,5,���쓌,3.1,35,,
2021/7/13,20:00:00,6,�쓌,1.4,16.4,100,0,0,7,��쓌,2.2,35,,
2021/7/13,21:00:00,6,�쓌,1,16.3,100,0,0,6,�쓌,2.5,25,,
2021/7/13,22:00:00,8,��,1.4,15.8,100,0,0,6,�쓌,2.7,32,,
2021/7/13,23:00:00,7,��쓌,0.9,15.8,100,0,0,7,��쓌,2,0,,
2021/7/13,0:00:00,6,�쓌,0.9,15.7,100,0,0,7,��쓌,2.1,8,,
2021/7/14,1:00:00,3,���k��,0.3,15.7,100,0,0,6,�쓌,1.9,32,,
2021/7/14,2:00:00,5,���쓌,1.7,15.5,100,0,0,5,���쓌,2.5,29,,
2021/7/14,3:00:00,4,��,1.4,15.4,100,0,0,4,��,3.1,28,,
2021/7/14,4:00:00,3,���k��,1,15.3,100,0,0,4,��,2.3,23,,
2021/7/14,5:00:00,5,���쓌,1.5,15.5,100,0,0.02,4,��,2.4,35,,
2021/7/14,6:00:00,2,�k��,1.3,15.8,100,0,0.08,4,��,2.8,15,,
2021/7/14,7:00:00,3,���k��,1.4,16.1,100,0,0.16,3,���k��,3.2,46,,
2021/7/14,8:00:00,5,���쓌,2.1,17.1,100,0,0.27,3,���k��,3.8,12,,
2021/7/14,9:00:00,5,���쓌,2.6,17.8,91.9,0,0.42,5,���쓌,4,58,,
2021/7/14,10:00:00,5,���쓌,2.7,18.8,88.4,0,0.65,5,���쓌,4.2,59,,
2021/7/14,11:00:00,5,���쓌,2.8,19.2,83.2,0,0.88,6,�쓌,4.7,53,,
2021/7/14,12:00:00,5,���쓌,2.7,19,86.3,0,0.78,5,���쓌,5.6,15,,
2021/7/14,13:00:00,4,��,2.5,20.7,82.8,0,0.82,5,���쓌,4.8,6,,
2021/7/14,14:00:00,5,���쓌,2.4,20,81.5,0,0.9,6,�쓌,4.5,48,,
2021/7/14,15:00:00,7,��쓌,2.8,19.3,86.4,0,0.67,7,��쓌,5.6,37,,
2021/7/14,16:00:00,7,��쓌,1.9,17.8,88.3,0,0.38,8,��,4.8,32,,
2021/7/14,17:00:00,7,��쓌,1.9,17.7,91.1,0,0.21,7,��쓌,4.2,45,,
2021/7/14,18:00:00,6,�쓌,1.6,17,93.2,0,0.06,7,��쓌,3.4,12,,
2021/7/14,19:00:00,6,�쓌,1.4,16.6,95,0,0.01,6,�쓌,2.5,43,,
2021/7/14,20:00:00,6,�쓌,0.7,16.5,96.4,0,0,5,���쓌,2.4,13,,
2021/7/14,21:00:00,6,�쓌,0.9,16.1,98.7,0,0,8,��,2.3,32,,
2021/7/14,22:00:00,6,�쓌,0.9,15.9,99.9,0,0,7,��쓌,2.3,44,,
2021/7/14,23:00:00,16,�É�,0.1,15.7,100,0,0,5,���쓌,1.9,2,,
2021/7/14,0:00:00,16,�É�,0.2,15.8,100,0,0,11,���쐼,1,46,,
2021/7/15,1:00:00,14,�k��,0.9,15.6,100,0,0,15,�k�k��,1.3,56,,
2021/7/15,2:00:00,11,���쐼,0.5,15.4,100,0,0,15,�k�k��,1.3,25,,
2021/7/15,3:00:00,16,�É�,0,15.4,100,0,0,12,��,0.8,0,,
2021/7/15,4:00:00,16,�É�,0.2,15.3,100,0,0,1,�k�k��,0.7,59,,
2021/7/15,5:00:00,2,�k��,1,15.7,100,0,0.03,2,�k��,1.4,52,,
2021/7/15,6:00:00,2,�k��,0.6,16.2,98,0,0.11,1,�k�k��,1.5,19,,
2021/7/15,7:00:00,16,�É�,0.2,17.1,96.2,0,0.15,16,�k,1.5,19,,
2021/7/15,8:00:00,6,�쓌,1.4,18.3,96.1,0,0.28,5,���쓌,2.8,33,,
2021/7/15,9:00:00,6,�쓌,1.6,18.6,92.7,0,0.38,7,��쓌,2.8,35,,
2021/7/15,10:00:00,7,��쓌,2.4,20.9,88.5,0,0.66,7,��쓌,4.1,58,,
2021/7/15,11:00:00,6,�쓌,2.6,21.4,82.4,0,0.86,7,��쓌,4.3,11,,
2021/7/15,12:00:00,7,��쓌,3.3,21.3,81.5,0,0.86,7,��쓌,5.4,27,,
2021/7/15,13:00:00,7,��쓌,3.3,19.8,82.9,0,0.89,7,��쓌,5.7,18,,
2021/7/15,14:00:00,7,��쓌,2.7,19.6,87.2,0,0.75,7,��쓌,5.7,32,,
2021/7/15,15:00:00,7,��쓌,2.5,18.3,91.8,0,0.42,7,��쓌,5.4,30,,
2021/7/15,16:00:00,7,��쓌,1.6,17.8,91.5,0,0.28,6,�쓌,4.4,2,,
2021/7/15,17:00:00,6,�쓌,1.5,16.9,96.3,0,0.16,6,�쓌,3.6,17,,
2021/7/15,18:00:00,4,��,1.1,17,99.3,0,0.08,5,���쓌,3,25,,
2021/7/15,19:00:00,2,�k��,1.3,16.9,100,0,0.02,3,���k��,2.4,52,,
2021/7/15,20:00:00,2,�k��,1.5,16.8,100,0,0,2,�k��,2.8,22,,
2021/7/15,21:00:00,1,�k�k��,2.1,16.7,100,0,0,1,�k�k��,3.5,25,,
2021/7/15,22:00:00,15,�k�k��,0.7,16.6,100,0,0,1,�k�k��,3.3,10,,
2021/7/15,23:00:00,15,�k�k��,0.3,16.3,100,0,0,16,�k,2.1,12,,
2021/7/15,0:00:00,16,�k,1.4,15.9,100,0,0,16,�k,2.3,56,,
2021/7/16,1:00:00,14,�k��,1.2,15.6,100,0,0,13,���k��,2.2,58,,
2021/7/16,2:00:00,14,�k��,0.9,15,100,0,0,14,�k��,2.2,20,,
2021/7/16,3:00:00,13,���k��,1,14.4,100,0,0,13,���k��,2.1,38,,
2021/7/16,4:00:00,16,�É�,0.2,14.4,100,0,0,12,��,1.4,7,,
2021/7/16,5:00:00,12,��,1.1,14.8,100,0,0.03,12,��,1.9,59,,
2021/7/16,6:00:00,14,�k��,0.8,15.8,100,0,0.09,11,���쐼,2.5,4,,
2021/7/16,7:00:00,10,�쐼,0.9,16.8,100,0,0.2,10,�쐼,2,53,,
2021/7/16,8:00:00,9,��쐼,0.4,18.1,100,0,0.35,11,���쐼,1.7,10,,
2021/7/16,9:00:00,7,��쓌,3,20.6,88.3,0,0.79,7,��쓌,4.4,55,,
2021/7/16,10:00:00,7,��쓌,2.6,21,86,0,0.92,7,��쓌,4.9,47,,
2021/7/16,11:00:00,6,�쓌,2,21.7,83.7,0,1.01,7,��쓌,4.3,4,,
2021/7/16,12:00:00,6,�쓌,2.4,24.5,80.3,0,1.06,6,�쓌,3.9,59,,
2021/7/16,13:00:00,6,�쓌,2.5,23.2,86,0,0.97,7,��쓌,4.3,38,,
2021/7/16,14:00:00,5,���쓌,2.4,23.6,80,0,0.97,5,���쓌,4.4,19,,
2021/7/16,15:00:00,5,���쓌,2.5,23.1,83.1,0,0.77,6,�쓌,3.8,56,,
2021/7/16,16:00:00,4,��,1.9,22.8,86.1,0,0.52,5,���쓌,3.7,2,,
2021/7/16,17:00:00,3,���k��,2.4,20.2,93.7,0,0.34,4,��,3.8,10,,
2021/7/16,18:00:00,4,��,2.5,18.8,95.9,0,0.16,3,���k��,3.4,18,,
2021/7/16,19:00:00,3,���k��,2.4,17.9,99.4,0,0.03,4,��,4,47,,
2021/7/16,20:00:00,3,���k��,2.1,17.6,100,0,0,3,���k��,3.7,9,,
2021/7/16,21:00:00,2,�k��,1.9,17.6,100,0,0,2,�k��,3.6,16,,
2021/7/16,22:00:00,2,�k��,1.4,17.6,100,0,0,1,�k�k��,3.5,21,,
2021/7/16,23:00:00,16,�k,0.7,17.5,100,0,0,16,�k,3.3,17,,
2021/7/16,0:00:00,1,�k�k��,1.3,17.4,100,0,0,1,�k�k��,2,54,,
2021/7/17,1:00:00,14,�k��,0.3,17,100,0,0,16,�k,1.5,7,,
2021/7/17,2:00:00,12,��,0.9,16.1,100,0,0,11,���쐼,1.7,18,,
2021/7/17,3:00:00,16,�É�,0,14.9,100,0,0,11,���쐼,1.7,13,,
2021/7/17,4:00:00,13,���k��,1.5,14.5,100,0,0,12,��,2,58,,
2021/7/17,5:00:00,13,���k��,1.5,15.6,100,0,0.03,13,���k��,2.5,20,,
2021/7/17,6:00:00,12,��,0.9,17.9,100,0,0.15,13,���k��,2.1,15,,
2021/7/17,7:00:00,16,�É�,0.1,20.5,100,0,0.34,13,���k��,1.9,7,,
2021/7/17,8:00:00,7,��쓌,1.2,23.2,88,0,0.46,7,��쓌,2,39,,
2021/7/17,9:00:00,7,��쓌,1.8,22.7,85.9,0,0.57,6,�쓌,2.7,39,,
2021/7/17,10:00:00,7,��쓌,2.2,23.9,86.1,0,0.74,7,��쓌,3.7,50,,
2021/7/17,11:00:00,6,�쓌,1.6,24.9,77.9,0,0.87,6,�쓌,3.4,38,,
2021/7/17,12:00:00,6,�쓌,1.9,26.5,72.4,0,0.95,4,��,2.9,55,,
2021/7/17,13:00:00,5,���쓌,1.8,27.3,72.8,0,1.03,7,��쓌,3.3,9,,